Time,TemperatureF,DewpointF,PressureIn,WindDirection,WindDirectionDegrees,WindSpeedMPH,WindSpeedGustMPH,Humidity,HourlyPrecipIn,Conditions,Clouds,dailyrainin,SolarRadiationWatts/m^2,SoftwareType,DateUTC
2013-02-10 00:07:00,39.0,30.4,30.24,ESE,104,0.0,1.0,71,0.00,,,0.00,0.0,meteohub,2013-02-10 08:07:00,
2013-02-10 00:12:00,39.0,30.4,30.24,ESE,104,0.0,1.0,71,0.00,,,0.00,0.0,meteohub,2013-02-10 08:12:00,
2013-02-10 00:17:00,39.2,30.6,30.24,ESE,104,0.0,1.0,71,0.00,,,0.00,0.0,meteohub,2013-02-10 08:17:00,
2013-02-10 00:22:00,39.6,30.6,30.24,ESE,104,0.0,1.0,70,0.00,,,0.00,0.0,meteohub,2013-02-10 08:22:00,
2013-02-10 00:27:00,39.0,30.4,30.24,ESE,104,0.0,1.0,71,0.00,,,0.00,0.0,meteohub,2013-02-10 08:27:00,
2013-02-10 00:32:00,38.3,30.0,30.24,ESE,104,0.0,1.0,72,0.00,,,0.00,0.0,meteohub,2013-02-10 08:32:00,
2013-02-10 00:37:00,37.4,29.8,30.24,ESE,104,0.0,1.0,74,0.00,,,0.00,0.0,meteohub,2013-02-10 08:37:00,
2013-02-10 00:42:00,37.2,29.7,30.24,ESE,104,0.0,0.0,74,0.00,,,0.00,0.0,meteohub,2013-02-10 08:42:00,
2013-02-10 00:47:00,37.0,29.8,30.24,ESE,104,0.0,0.0,75,0.00,,,0.00,0.0,meteohub,2013-02-10 08:47:00,
2013-02-10 00:52:00,37.2,30.0,30.24,ESE,104,0.0,0.0,75,0.00,,,0.00,0.0,meteohub,2013-02-10 08:52:00,
2013-02-10 01:02:00,37.2,30.0,30.24,ESE,104,0.0,0.0,75,0.00,,,0.00,0.0,meteohub,2013-02-10 09:02:00,
2013-02-10 01:07:00,37.6,30.4,30.24,ESE,104,0.0,0.0,75,0.00,,,0.00,0.0,meteohub,2013-02-10 09:07:00,
2013-02-10 01:12:00,37.8,30.6,30.24,ESE,104,0.0,1.0,75,0.00,,,0.00,0.0,meteohub,2013-02-10 09:12:00,
2013-02-10 01:17:00,37.9,30.4,30.24,ESE,104,0.0,1.0,74,0.00,,,0.00,0.0,meteohub,2013-02-10 09:17:00,
2013-02-10 01:22:00,38.5,30.6,30.24,ESE,104,1.0,1.0,73,0.00,,,0.00,0.0,meteohub,2013-02-10 09:22:00,
2013-02-10 01:27:00,38.8,30.6,30.24,ESE,104,0.0,1.0,72,0.00,,,0.00,0.0,meteohub,2013-02-10 09:27:00,
2013-02-10 01:32:00,38.1,30.2,30.24,ESE,104,0.0,1.0,73,0.00,,,0.00,0.0,meteohub,2013-02-10 09:32:00,
2013-02-10 01:37:00,37.8,30.2,30.24,ESE,104,0.0,1.0,74,0.00,,,0.00,0.0,meteohub,2013-02-10 09:37:00,
2013-02-10 01:42:00,37.9,30.4,30.24,ESE,104,0.0,1.0,74,0.00,,,0.00,0.0,meteohub,2013-02-10 09:42:00,
2013-02-10 01:47:00,38.1,30.2,30.24,ESE,104,0.0,1.0,73,0.00,,,0.00,0.0,meteohub,2013-02-10 09:47:00,
2013-02-10 01:52:00,38.1,30.2,30.24,ESE,104,0.0,1.0,73,0.00,,,0.00,0.0,meteohub,2013-02-10 09:52:00,
2013-02-10 01:57:00,38.3,30.4,30.24,ESE,104,1.0,1.0,73,0.00,,,0.00,0.0,meteohub,2013-02-10 09:57:00,
2013-02-10 02:02:00,38.5,30.2,30.24,ESE,104,0.0,1.0,72,0.00,,,0.00,0.0,meteohub,2013-02-10 10:02:00,
2013-02-10 02:07:00,38.7,30.0,30.24,ESE,104,0.0,1.0,71,0.00,,,0.00,0.0,meteohub,2013-02-10 10:07:00,
2013-02-10 02:12:00,38.5,29.8,30.24,ESE,104,0.0,1.0,71,0.00,,,0.00,0.0,meteohub,2013-02-10 10:12:00,
2013-02-10 02:17:00,38.1,29.8,30.24,ESE,104,0.0,1.0,72,0.00,,,0.00,0.0,meteohub,2013-02-10 10:17:00,
2013-02-10 02:22:00,37.8,29.5,30.24,ESE,104,0.0,1.0,72,0.00,,,0.00,0.0,meteohub,2013-02-10 10:22:00,
2013-02-10 02:27:00,37.8,29.8,30.24,ESE,104,0.0,1.0,73,0.00,,,0.00,0.0,meteohub,2013-02-10 10:27:00,
2013-02-10 02:32:00,37.9,29.7,30.23,ESE,104,0.0,1.0,72,0.00,,,0.00,0.0,meteohub,2013-02-10 10:32:00,
2013-02-10 02:37:00,38.3,29.7,30.23,ESE,104,0.0,1.0,71,0.00,,,0.00,0.0,meteohub,2013-02-10 10:37:00,
2013-02-10 02:42:00,37.9,29.3,30.23,ESE,104,0.0,1.0,71,0.00,,,0.00,0.0,meteohub,2013-02-10 10:42:00,
2013-02-10 02:47:00,37.6,29.3,30.24,ESE,104,0.0,1.0,72,0.00,,,0.00,0.0,meteohub,2013-02-10 10:47:00,
2013-02-10 02:52:00,37.8,29.5,30.24,ESE,104,0.0,2.0,72,0.00,,,0.00,0.0,meteohub,2013-02-10 10:52:00,
2013-02-10 02:57:00,37.9,29.3,30.24,ESE,104,0.0,2.0,71,0.00,,,0.00,0.0,meteohub,2013-02-10 10:57:00,
2013-02-10 03:02:00,38.1,29.1,30.24,ESE,104,0.0,2.0,70,0.00,,,0.00,0.0,meteohub,2013-02-10 11:02:00,
2013-02-10 03:07:00,38.5,29.1,30.24,ESE,104,0.0,0.0,69,0.00,,,0.00,0.0,meteohub,2013-02-10 11:07:00,
2013-02-10 03:12:00,38.5,28.8,30.23,ESE,104,0.0,1.0,68,0.00,,,0.00,0.0,meteohub,2013-02-10 11:12:00,
2013-02-10 03:17:00,38.5,29.5,30.23,ESE,104,0.0,1.0,70,0.00,,,0.00,0.0,meteohub,2013-02-10 11:17:00,
2013-02-10 03:22:00,38.3,29.3,30.23,ESE,104,0.0,1.0,70,0.00,,,0.00,0.0,meteohub,2013-02-10 11:22:00,
2013-02-10 03:27:00,37.9,29.3,30.23,ESE,104,0.0,1.0,71,0.00,,,0.00,0.0,meteohub,2013-02-10 11:27:00,
2013-02-10 03:32:00,37.6,29.3,30.23,ESE,104,0.0,0.0,72,0.00,,,0.00,0.0,meteohub,2013-02-10 11:32:00,
2013-02-10 03:37:00,37.8,29.5,30.23,ESE,104,0.0,0.0,72,0.00,,,0.00,0.0,meteohub,2013-02-10 11:37:00,
2013-02-10 03:42:00,37.6,29.7,30.23,ESE,104,0.0,0.0,73,0.00,,,0.00,0.0,meteohub,2013-02-10 11:42:00,
2013-02-10 03:47:00,37.0,29.5,30.23,ESE,104,0.0,0.0,74,0.00,,,0.00,0.0,meteohub,2013-02-10 11:47:00,
2013-02-10 03:52:00,37.0,29.8,30.23,ESE,104,0.0,0.0,75,0.00,,,0.00,0.0,meteohub,2013-02-10 11:52:00,
2013-02-10 03:57:00,37.4,29.8,30.23,ESE,104,0.0,1.0,74,0.00,,,0.00,0.0,meteohub,2013-02-10 11:57:00,
2013-02-10 04:02:00,37.2,29.7,30.23,ESE,104,0.0,1.0,74,0.00,,,0.00,0.0,meteohub,2013-02-10 12:02:00,
2013-02-10 04:07:00,37.2,29.7,30.23,ESE,104,0.0,1.0,74,0.00,,,0.00,0.0,meteohub,2013-02-10 12:07:00,
2013-02-10 04:12:00,37.8,29.8,30.23,ESE,104,0.0,1.0,73,0.00,,,0.00,0.0,meteohub,2013-02-10 12:12:00,
2013-02-10 04:17:00,38.1,29.5,30.23,ESE,104,0.0,1.0,71,0.00,,,0.00,0.0,meteohub,2013-02-10 12:17:00,
2013-02-10 04:22:00,38.1,29.5,30.23,ESE,104,0.0,1.0,71,0.00,,,0.00,0.0,meteohub,2013-02-10 12:22:00,
2013-02-10 04:27:00,38.5,29.5,30.23,ESE,104,0.0,0.0,70,0.00,,,0.00,0.0,meteohub,2013-02-10 12:27:00,
2013-02-10 04:32:00,37.8,29.1,30.24,ESE,104,0.0,0.0,71,0.00,,,0.00,0.0,meteohub,2013-02-10 12:32:00,
2013-02-10 04:37:00,37.6,29.3,30.23,ESE,104,0.0,0.0,72,0.00,,,0.00,0.0,meteohub,2013-02-10 12:37:00,
2013-02-10 04:42:00,37.2,29.1,30.24,ESE,104,0.0,0.0,72,0.00,,,0.00,0.0,meteohub,2013-02-10 12:42:00,
2013-02-10 04:47:00,37.4,29.8,30.24,ESE,104,0.0,0.0,74,0.00,,,0.00,0.0,meteohub,2013-02-10 12:47:00,
2013-02-10 04:52:00,37.4,29.5,30.24,ESE,104,0.0,0.0,73,0.00,,,0.00,0.0,meteohub,2013-02-10 12:52:00,
2013-02-10 04:57:00,37.2,29.3,30.24,ESE,104,0.0,0.0,73,0.00,,,0.00,0.0,meteohub,2013-02-10 12:57:00,
2013-02-10 05:02:00,37.2,29.3,30.24,ESE,104,0.0,0.0,73,0.00,,,0.00,0.0,meteohub,2013-02-10 13:02:00,
2013-02-10 05:07:00,37.2,29.3,30.24,ESE,104,0.0,0.0,73,0.00,,,0.00,0.0,meteohub,2013-02-10 13:07:00,
2013-02-10 05:12:00,37.2,29.3,30.24,ESE,104,0.0,0.0,73,0.00,,,0.00,0.0,meteohub,2013-02-10 13:12:00,
2013-02-10 05:17:00,36.9,28.9,30.24,ESE,104,0.0,0.0,73,0.00,,,0.00,0.0,meteohub,2013-02-10 13:17:00,
2013-02-10 05:22:00,36.7,29.1,30.24,ESE,104,0.0,0.0,74,0.00,,,0.00,0.0,meteohub,2013-02-10 13:22:00,
2013-02-10 05:27:00,36.3,28.8,30.24,ESE,104,0.0,0.0,74,0.00,,,0.00,0.0,meteohub,2013-02-10 13:27:00,
2013-02-10 05:32:00,35.8,28.6,30.24,ESE,104,0.0,0.0,75,0.00,,,0.00,0.0,meteohub,2013-02-10 13:32:00,
2013-02-10 05:37:00,35.8,28.9,30.24,ESE,104,0.0,0.0,76,0.00,,,0.00,0.0,meteohub,2013-02-10 13:37:00,
2013-02-10 05:42:00,35.8,28.9,30.24,ESE,104,0.0,0.0,76,0.00,,,0.00,0.0,meteohub,2013-02-10 13:42:00,
2013-02-10 05:47:00,36.0,29.1,30.24,ESE,104,0.0,0.0,76,0.00,,,0.00,0.0,meteohub,2013-02-10 13:47:00,
2013-02-10 05:52:00,36.1,28.9,30.24,ESE,104,0.0,0.0,75,0.00,,,0.00,0.0,meteohub,2013-02-10 13:52:00,
2013-02-10 05:57:00,36.0,28.8,30.24,ESE,104,0.0,0.0,75,0.00,,,0.00,0.0,meteohub,2013-02-10 13:57:00,
2013-02-10 06:02:00,36.1,28.9,30.24,ESE,104,0.0,0.0,75,0.00,,,0.00,0.0,meteohub,2013-02-10 14:02:00,
2013-02-10 06:07:00,36.3,29.1,30.24,ESE,104,0.0,0.0,75,0.00,,,0.00,0.0,meteohub,2013-02-10 14:07:00,
2013-02-10 06:12:00,36.7,29.1,30.24,ESE,104,0.0,0.0,74,0.00,,,0.00,0.0,meteohub,2013-02-10 14:12:00,
2013-02-10 06:22:00,37.0,29.1,30.25,ESE,104,0.0,0.0,73,0.00,,,0.00,0.0,meteohub,2013-02-10 14:22:00,
2013-02-10 06:27:00,36.7,29.1,30.25,ESE,104,0.0,0.0,74,0.00,,,0.00,0.0,meteohub,2013-02-10 14:27:00,
2013-02-10 06:32:00,36.3,28.8,30.25,ESE,104,0.0,0.0,74,0.00,,,0.00,0.0,meteohub,2013-02-10 14:32:00,
2013-02-10 06:37:00,36.1,28.9,30.25,ESE,104,0.0,0.0,75,0.00,,,0.00,0.0,meteohub,2013-02-10 14:37:00,
2013-02-10 06:42:00,36.0,28.8,30.25,ESE,104,0.0,0.0,75,0.00,,,0.00,0.0,meteohub,2013-02-10 14:42:00,
2013-02-10 06:47:00,35.6,28.4,30.25,ESE,104,0.0,0.0,75,0.00,,,0.00,0.0,meteohub,2013-02-10 14:47:00,
2013-02-10 06:52:00,35.6,28.8,30.25,ESE,104,0.0,0.0,76,0.00,,,0.00,0.0,meteohub,2013-02-10 14:52:00,
2013-02-10 07:02:00,36.3,28.8,30.25,ESE,104,0.0,0.0,74,0.00,,,0.00,0.0,meteohub,2013-02-10 15:02:00,
2013-02-10 07:07:00,36.1,28.9,30.25,ESE,104,0.0,0.0,75,0.00,,,0.00,0.0,meteohub,2013-02-10 15:07:00,
2013-02-10 07:12:00,36.1,29.3,30.26,ESE,104,0.0,0.0,76,0.00,,,0.00,5.0,meteohub,2013-02-10 15:12:00,
2013-02-10 07:17:00,36.1,28.9,30.26,ESE,104,0.0,0.0,75,0.00,,,0.00,5.0,meteohub,2013-02-10 15:17:00,
2013-02-10 07:22:00,36.0,29.1,30.26,ESE,104,0.0,0.0,76,0.00,,,0.00,7.0,meteohub,2013-02-10 15:22:00,
2013-02-10 07:27:00,36.1,29.3,30.26,ESE,104,0.0,0.0,76,0.00,,,0.00,9.0,meteohub,2013-02-10 15:27:00,
2013-02-10 07:32:00,35.1,28.6,30.26,ESE,104,0.0,1.0,77,0.00,,,0.00,11.0,meteohub,2013-02-10 15:32:00,
2013-02-10 07:37:00,34.5,28.8,30.27,ESE,104,0.0,1.0,79,0.00,,,0.00,12.0,meteohub,2013-02-10 15:37:00,
2013-02-10 07:42:00,34.5,28.8,30.27,ESE,104,0.0,1.0,79,0.00,,,0.00,12.0,meteohub,2013-02-10 15:42:00,
2013-02-10 07:47:00,35.1,29.1,30.27,ESE,104,0.0,0.0,79,0.00,,,0.00,14.0,meteohub,2013-02-10 15:47:00,
2013-02-10 07:52:00,35.4,29.5,30.27,ESE,104,0.0,0.0,79,0.00,,,0.00,16.0,meteohub,2013-02-10 15:52:00,
2013-02-10 07:57:00,36.1,30.0,30.27,ESE,104,0.0,0.0,78,0.00,,,0.00,18.0,meteohub,2013-02-10 15:57:00,
2013-02-10 08:02:00,36.7,29.8,30.27,ESE,104,0.0,0.0,76,0.00,,,0.00,19.0,meteohub,2013-02-10 16:02:00,
2013-02-10 08:07:00,37.2,30.0,30.27,ESE,104,0.0,0.0,75,0.00,,,0.00,19.0,meteohub,2013-02-10 16:07:00,
2013-02-10 08:12:00,37.9,30.0,30.27,ESE,104,0.0,0.0,73,0.00,,,0.00,21.0,meteohub,2013-02-10 16:12:00,
2013-02-10 08:17:00,38.1,29.8,30.27,ESE,104,0.0,0.0,72,0.00,,,0.00,23.0,meteohub,2013-02-10 16:17:00,
2013-02-10 08:22:00,38.1,29.8,30.27,ESE,104,0.0,0.0,72,0.00,,,0.00,30.0,meteohub,2013-02-10 16:22:00,
2013-02-10 08:27:00,38.5,30.6,30.27,ESE,104,0.0,0.0,73,0.00,,,0.00,26.0,meteohub,2013-02-10 16:27:00,
2013-02-10 08:32:00,38.8,30.6,30.27,ESE,104,0.0,0.0,72,0.00,,,0.00,25.0,meteohub,2013-02-10 16:32:00,
2013-02-10 08:42:00,39.0,31.1,30.27,ESE,104,0.0,0.0,73,0.00,,,0.00,28.0,meteohub,2013-02-10 16:42:00,
2013-02-10 08:47:00,39.6,31.6,30.27,ESE,104,0.0,0.0,73,0.00,,,0.00,28.0,meteohub,2013-02-10 16:47:00,
2013-02-10 08:57:00,41.2,32.9,30.27,ESE,104,0.0,0.0,72,0.00,,,0.00,32.0,meteohub,2013-02-10 16:57:00,
2013-02-10 09:02:00,43.3,32.7,30.27,ESE,104,1.0,1.0,66,0.00,,,0.00,26.0,meteohub,2013-02-10 17:02:00,
2013-02-10 09:12:00,45.3,32.7,30.28,ESE,104,1.0,2.0,61,0.00,,,0.00,32.0,meteohub,2013-02-10 17:12:00,
2013-02-10 09:17:00,45.9,32.7,30.27,ESE,104,1.0,2.0,60,0.00,,,0.00,33.0,meteohub,2013-02-10 17:17:00,
2013-02-10 09:27:00,45.9,32.7,30.27,ESE,103,1.0,3.0,60,0.00,,,0.00,35.0,meteohub,2013-02-10 17:27:00,
2013-02-10 09:32:00,46.0,32.9,30.27,East,89,1.0,3.0,60,0.00,,,0.00,37.0,meteohub,2013-02-10 17:32:00,
2013-02-10 09:37:00,46.2,33.1,30.27,East,89,1.0,3.0,60,0.00,,,0.00,39.0,meteohub,2013-02-10 17:37:00,
2013-02-10 09:42:00,46.4,33.6,30.27,ENE,75,3.0,3.0,61,0.00,,,0.00,44.0,meteohub,2013-02-10 17:42:00,
2013-02-10 09:47:00,46.2,33.1,30.27,East,82,3.0,5.0,60,0.00,,,0.00,47.0,meteohub,2013-02-10 17:47:00,
2013-02-10 09:52:00,46.4,33.6,30.27,East,80,3.0,5.0,61,0.00,,,0.00,49.0,meteohub,2013-02-10 17:52:00,
2013-02-10 10:02:00,46.6,33.8,30.27,ESE,102,1.0,7.0,61,0.00,,,0.00,76.0,meteohub,2013-02-10 18:02:00,
2013-02-10 10:07:00,46.9,33.8,30.27,East,80,3.0,7.0,60,0.00,,,0.00,79.0,meteohub,2013-02-10 18:07:00,
2013-02-10 10:17:00,47.1,34.0,30.27,East,81,5.0,9.0,60,0.00,,,0.00,88.0,meteohub,2013-02-10 18:17:00,
2013-02-10 10:22:00,47.7,34.5,30.27,East,97,2.0,9.0,60,0.00,,,0.00,156.0,meteohub,2013-02-10 18:22:00,
2013-02-10 10:27:00,47.7,34.0,30.27,East,90,0.0,7.0,59,0.00,,,0.00,355.0,meteohub,2013-02-10 18:27:00,
2013-02-10 10:32:00,48.0,34.9,30.27,East,96,0.0,6.0,60,0.00,,,0.00,341.0,meteohub,2013-02-10 18:32:00,
2013-02-10 10:37:00,48.0,34.0,30.27,ENE,70,0.0,6.0,58,0.00,,,0.00,443.0,meteohub,2013-02-10 18:37:00,
2013-02-10 10:42:00,48.0,34.9,30.27,East,80,3.0,7.0,60,0.00,,,0.00,496.0,meteohub,2013-02-10 18:42:00,
2013-02-10 10:47:00,48.0,34.0,30.27,East,84,2.0,7.0,58,0.00,,,0.00,534.0,meteohub,2013-02-10 18:47:00,
2013-02-10 10:52:00,48.2,34.9,30.27,East,80,3.0,8.0,60,0.00,,,0.00,478.0,meteohub,2013-02-10 18:52:00,
2013-02-10 10:57:00,48.4,35.1,30.27,ENE,78,5.0,8.0,60,0.00,,,0.00,527.0,meteohub,2013-02-10 18:57:00,
2013-02-10 11:02:00,48.6,35.2,30.26,ENE,78,0.0,6.0,60,0.00,,,0.00,555.0,meteohub,2013-02-10 19:02:00,
2013-02-10 11:07:00,48.7,34.7,30.26,East,84,1.0,5.0,58,0.00,,,0.00,561.0,meteohub,2013-02-10 19:07:00,
2013-02-10 11:12:00,48.9,35.6,30.26,East,80,0.0,5.0,60,0.00,,,0.00,571.0,meteohub,2013-02-10 19:12:00,
2013-02-10 11:17:00,49.5,35.8,30.26,ENE,72,0.0,4.0,59,0.00,,,0.00,573.0,meteohub,2013-02-10 19:17:00,
2013-02-10 11:22:00,49.6,35.4,30.26,ENE,78,3.0,4.0,58,0.00,,,0.00,584.0,meteohub,2013-02-10 19:22:00,
2013-02-10 11:27:00,49.8,35.2,30.26,East,80,1.0,3.0,57,0.00,,,0.00,585.0,meteohub,2013-02-10 19:27:00,
2013-02-10 11:32:00,50.5,36.0,30.26,ENE,71,1.0,5.0,57,0.00,,,0.00,594.0,meteohub,2013-02-10 19:32:00,
2013-02-10 11:37:00,50.7,36.5,30.25,ENE,72,0.0,6.0,58,0.00,,,0.00,598.0,meteohub,2013-02-10 19:37:00,
2013-02-10 11:42:00,50.5,35.1,30.25,ENE,72,0.0,6.0,55,0.00,,,0.00,603.0,meteohub,2013-02-10 19:42:00,
2013-02-10 11:52:00,51.1,36.3,30.25,NNW,334,0.0,6.0,57,0.00,,,0.00,612.0,meteohub,2013-02-10 19:52:00,
2013-02-10 11:57:00,51.6,36.9,30.25,NW,321,4.0,6.0,57,0.00,,,0.00,615.0,meteohub,2013-02-10 19:57:00,
2013-02-10 12:02:00,51.4,35.8,30.24,East,89,0.0,5.0,55,0.00,,,0.00,619.0,meteohub,2013-02-10 20:02:00,
2013-02-10 12:07:00,51.6,36.0,30.24,SSE,147,0.0,5.0,55,0.00,,,0.00,619.0,meteohub,2013-02-10 20:07:00,
2013-02-10 12:17:00,52.0,36.9,30.23,ENE,59,0.0,5.0,56,0.00,,,0.00,626.0,meteohub,2013-02-10 20:17:00,
2013-02-10 12:22:00,51.6,36.5,30.22,East,88,2.0,4.0,56,0.00,,,0.00,624.0,meteohub,2013-02-10 20:22:00,
2013-02-10 12:27:00,51.4,36.7,30.22,East,87,1.0,3.0,57,0.00,,,0.00,626.0,meteohub,2013-02-10 20:27:00,
2013-02-10 12:32:00,52.2,36.9,30.22,NE,44,0.0,3.0,56,0.00,,,0.00,621.0,meteohub,2013-02-10 20:32:00,
2013-02-10 12:37:00,52.5,36.9,30.22,ENE,76,3.0,3.0,55,0.00,,,0.00,624.0,meteohub,2013-02-10 20:37:00,
2013-02-10 12:42:00,52.2,36.9,30.22,East,85,0.0,5.0,56,0.00,,,0.00,622.0,meteohub,2013-02-10 20:42:00,
2013-02-10 12:47:00,52.7,37.9,30.22,East,99,3.0,5.0,57,0.00,,,0.00,624.0,meteohub,2013-02-10 20:47:00,
2013-02-10 12:52:00,52.7,37.0,30.22,East,90,1.0,5.0,55,0.00,,,0.00,621.0,meteohub,2013-02-10 20:52:00,
2013-02-10 12:57:00,53.2,37.4,30.21,ENE,78,2.0,4.0,55,0.00,,,0.00,621.0,meteohub,2013-02-10 20:57:00,
2013-02-10 13:02:00,53.2,37.9,30.21,ENE,78,1.0,4.0,56,0.00,,,0.00,617.0,meteohub,2013-02-10 21:02:00,
2013-02-10 13:07:00,52.9,37.6,30.21,East,82,0.0,3.0,56,0.00,,,0.00,613.0,meteohub,2013-02-10 21:07:00,
2013-02-10 13:12:00,52.9,38.1,30.21,East,82,0.0,3.0,57,0.00,,,0.00,612.0,meteohub,2013-02-10 21:12:00,
2013-02-10 13:17:00,53.4,38.1,30.20,East,86,1.0,3.0,56,0.00,,,0.00,608.0,meteohub,2013-02-10 21:17:00,
2013-02-10 13:22:00,54.0,38.7,30.20,East,86,1.0,3.0,56,0.00,,,0.00,606.0,meteohub,2013-02-10 21:22:00,
2013-02-10 13:27:00,54.1,38.8,30.20,ENE,74,0.0,5.0,56,0.00,,,0.00,603.0,meteohub,2013-02-10 21:27:00,
2013-02-10 13:32:00,54.3,39.0,30.20,East,86,0.0,5.0,56,0.00,,,0.00,599.0,meteohub,2013-02-10 21:32:00,
2013-02-10 13:42:00,54.5,37.8,30.19,East,90,1.0,5.0,53,0.00,,,0.00,585.0,meteohub,2013-02-10 21:42:00,
2013-02-10 13:52:00,55.0,37.8,30.19,East,96,3.0,5.0,52,0.00,,,0.00,577.0,meteohub,2013-02-10 21:52:00,
2013-02-10 13:57:00,55.2,37.9,30.19,East,90,2.0,5.0,52,0.00,,,0.00,571.0,meteohub,2013-02-10 21:57:00,
2013-02-10 14:02:00,55.4,39.9,30.19,East,101,2.0,5.0,56,0.00,,,0.00,563.0,meteohub,2013-02-10 22:02:00,
2013-02-10 14:07:00,55.9,38.5,30.19,East,96,3.0,5.0,52,0.00,,,0.00,554.0,meteohub,2013-02-10 22:07:00,
2013-02-10 14:12:00,55.8,38.5,30.19,East,96,2.0,5.0,52,0.00,,,0.00,545.0,meteohub,2013-02-10 22:12:00,
2013-02-10 14:17:00,55.9,37.6,30.19,NNW,348,2.0,5.0,50,0.00,,,0.00,538.0,meteohub,2013-02-10 22:17:00,
2013-02-10 14:22:00,55.9,37.0,30.18,ENE,66,0.0,5.0,49,0.00,,,0.00,529.0,meteohub,2013-02-10 22:22:00,
2013-02-10 14:27:00,57.0,40.1,30.18,West,279,0.0,5.0,53,0.00,,,0.00,519.0,meteohub,2013-02-10 22:27:00,
2013-02-10 14:32:00,56.5,39.0,30.19,East,82,0.0,5.0,52,0.00,,,0.00,510.0,meteohub,2013-02-10 22:32:00,
2013-02-10 14:37:00,56.1,38.7,30.18,ESE,107,0.0,4.0,52,0.00,,,0.00,497.0,meteohub,2013-02-10 22:37:00,
2013-02-10 14:42:00,56.5,38.1,30.18,WSW,257,1.0,4.0,50,0.00,,,0.00,489.0,meteohub,2013-02-10 22:42:00,
2013-02-10 14:47:00,56.3,38.5,30.18,East,82,0.0,6.0,51,0.00,,,0.00,475.0,meteohub,2013-02-10 22:47:00,
2013-02-10 14:52:00,55.9,38.1,30.18,East,82,0.0,6.0,51,0.00,,,0.00,466.0,meteohub,2013-02-10 22:52:00,
2013-02-10 14:57:00,56.7,41.2,30.18,SE,125,1.0,6.0,56,0.00,,,0.00,454.0,meteohub,2013-02-10 22:57:00,
2013-02-10 15:02:00,57.7,39.2,30.18,SSE,161,0.0,3.0,50,0.00,,,0.00,441.0,meteohub,2013-02-10 23:02:00,
2013-02-10 15:07:00,56.8,39.4,30.18,NW,324,0.0,3.0,52,0.00,,,0.00,434.0,meteohub,2013-02-10 23:07:00,
2013-02-10 15:17:00,56.7,37.2,30.18,East,94,0.0,3.0,48,0.00,,,0.00,410.0,meteohub,2013-02-10 23:17:00,
2013-02-10 15:22:00,56.8,38.5,30.18,East,88,0.0,3.0,50,0.00,,,0.00,396.0,meteohub,2013-02-10 23:22:00,
2013-02-10 15:27:00,57.6,39.0,30.17,West,280,1.0,3.0,50,0.00,,,0.00,383.0,meteohub,2013-02-10 23:27:00,
2013-02-10 15:32:00,57.9,39.4,30.17,South,178,0.0,5.0,50,0.00,,,0.00,369.0,meteohub,2013-02-10 23:32:00,
2013-02-10 15:37:00,57.9,39.4,30.17,SSE,149,1.0,5.0,50,0.00,,,0.00,355.0,meteohub,2013-02-10 23:37:00,
2013-02-10 15:42:00,57.6,37.9,30.18,East,100,0.0,5.0,48,0.00,,,0.00,345.0,meteohub,2013-02-10 23:42:00,
2013-02-10 15:47:00,57.6,37.9,30.18,WSW,251,0.0,4.0,48,0.00,,,0.00,329.0,meteohub,2013-02-10 23:47:00,
2013-02-10 15:52:00,57.4,37.9,30.18,WSW,251,0.0,4.0,48,0.00,,,0.00,315.0,meteohub,2013-02-10 23:52:00,
2013-02-10 15:57:00,57.6,38.5,30.18,WSW,242,1.0,4.0,49,0.00,,,0.00,299.0,meteohub,2013-02-10 23:57:00,
2013-02-10 16:02:00,57.7,38.1,30.18,WSW,242,0.0,1.0,48,0.00,,,0.00,285.0,meteohub,2013-02-11 00:02:00,
2013-02-10 16:07:00,57.6,37.9,30.18,SSW,211,0.0,1.0,48,0.00,,,0.00,267.0,meteohub,2013-02-11 00:07:00,
2013-02-10 16:12:00,57.9,39.4,30.18,West,260,1.0,3.0,50,0.00,,,0.00,253.0,meteohub,2013-02-11 00:12:00,
2013-02-10 16:17:00,58.1,39.6,30.17,SW,231,3.0,4.0,50,0.00,,,0.00,239.0,meteohub,2013-02-11 00:17:00,
2013-02-10 16:22:00,58.3,39.7,30.17,SSW,211,0.0,4.0,50,0.00,,,0.00,218.0,meteohub,2013-02-11 00:22:00,
2013-02-10 16:27:00,58.3,39.2,30.17,SSW,211,0.0,4.0,49,0.00,,,0.00,199.0,meteohub,2013-02-11 00:27:00,
2013-02-10 16:32:00,57.9,38.3,30.17,SSW,211,0.0,3.0,48,0.00,,,0.00,181.0,meteohub,2013-02-11 00:32:00,
2013-02-10 16:37:00,57.7,38.1,30.17,SSW,211,0.0,1.0,48,0.00,,,0.00,160.0,meteohub,2013-02-11 00:37:00,
2013-02-10 16:42:00,57.7,38.7,30.17,West,276,1.0,1.0,49,0.00,,,0.00,142.0,meteohub,2013-02-11 00:42:00,
2013-02-10 16:47:00,57.9,39.9,30.17,West,276,0.0,4.0,51,0.00,,,0.00,127.0,meteohub,2013-02-11 00:47:00,
2013-02-10 16:52:00,57.7,39.7,30.17,West,276,0.0,4.0,51,0.00,,,0.00,109.0,meteohub,2013-02-11 00:52:00,
2013-02-10 16:57:00,57.6,37.9,30.17,West,276,0.0,2.0,48,0.00,,,0.00,93.0,meteohub,2013-02-11 00:57:00,
2013-02-10 17:02:00,57.6,39.0,30.17,West,276,1.0,1.0,50,0.00,,,0.00,81.0,meteohub,2013-02-11 01:02:00,
2013-02-10 17:07:00,57.6,39.0,30.17,West,276,0.0,2.0,50,0.00,,,0.00,63.0,meteohub,2013-02-11 01:07:00,
2013-02-10 17:12:00,57.2,39.2,30.17,WSW,257,0.0,2.0,51,0.00,,,0.00,49.0,meteohub,2013-02-11 01:12:00,
2013-02-10 17:17:00,56.5,38.7,30.17,WSW,257,0.0,2.0,51,0.00,,,0.00,37.0,meteohub,2013-02-11 01:17:00,
2013-02-10 17:22:00,55.8,40.3,30.17,WSW,257,0.0,2.0,56,0.00,,,0.00,28.0,meteohub,2013-02-11 01:22:00,
2013-02-10 17:27:00,55.0,39.6,30.17,WSW,257,0.0,2.0,56,0.00,,,0.00,23.0,meteohub,2013-02-11 01:27:00,
2013-02-10 17:32:00,54.7,40.3,30.17,WSW,257,0.0,1.0,58,0.00,,,0.00,11.0,meteohub,2013-02-11 01:32:00,
2013-02-10 17:37:00,54.1,38.8,30.17,WSW,257,0.0,1.0,56,0.00,,,0.00,7.0,meteohub,2013-02-11 01:37:00,
2013-02-10 17:42:00,53.4,38.5,30.17,WSW,257,0.0,0.0,57,0.00,,,0.00,5.0,meteohub,2013-02-11 01:42:00,
2013-02-10 17:47:00,52.5,38.1,30.17,WSW,257,0.0,0.0,58,0.00,,,0.00,0.0,meteohub,2013-02-11 01:47:00,
2013-02-10 17:52:00,52.2,37.8,30.17,WSW,257,0.0,0.0,58,0.00,,,0.00,0.0,meteohub,2013-02-11 01:52:00,
2013-02-10 17:57:00,51.6,37.8,30.17,WSW,257,0.0,0.0,59,0.00,,,0.00,0.0,meteohub,2013-02-11 01:57:00,
2013-02-10 18:02:00,51.3,37.8,30.18,WSW,257,0.0,0.0,60,0.00,,,0.00,0.0,meteohub,2013-02-11 02:02:00,
2013-02-10 18:07:00,50.7,37.8,30.18,WSW,257,0.0,0.0,61,0.00,,,0.00,0.0,meteohub,2013-02-11 02:07:00,
2013-02-10 18:12:00,50.4,37.8,30.18,WSW,257,0.0,0.0,62,0.00,,,0.00,0.0,meteohub,2013-02-11 02:12:00,
2013-02-10 18:17:00,50.4,38.3,30.18,WSW,257,0.0,0.0,63,0.00,,,0.00,0.0,meteohub,2013-02-11 02:17:00,
2013-02-10 18:22:00,49.8,37.8,30.18,WSW,257,0.0,0.0,63,0.00,,,0.00,0.0,meteohub,2013-02-11 02:22:00,
2013-02-10 18:27:00,49.6,37.9,30.19,WSW,257,0.0,0.0,64,0.00,,,0.00,0.0,meteohub,2013-02-11 02:27:00,
2013-02-10 18:32:00,48.9,37.8,30.19,WSW,257,0.0,0.0,65,0.00,,,0.00,0.0,meteohub,2013-02-11 02:32:00,
2013-02-10 18:37:00,48.6,37.8,30.19,WSW,257,0.0,0.0,66,0.00,,,0.00,0.0,meteohub,2013-02-11 02:37:00,
2013-02-10 18:42:00,48.2,37.8,30.19,WSW,257,0.0,0.0,67,0.00,,,0.00,0.0,meteohub,2013-02-11 02:42:00,
2013-02-10 18:47:00,48.4,37.9,30.19,WSW,257,0.0,0.0,67,0.00,,,0.00,0.0,meteohub,2013-02-11 02:47:00,
2013-02-10 18:52:00,48.7,37.9,30.19,WSW,257,0.0,0.0,66,0.00,,,0.00,0.0,meteohub,2013-02-11 02:52:00,
2013-02-10 18:57:00,48.4,37.9,30.19,WSW,257,0.0,0.0,67,0.00,,,0.00,0.0,meteohub,2013-02-11 02:57:00,
2013-02-10 19:02:00,47.8,37.4,30.19,WSW,257,0.0,0.0,67,0.00,,,0.00,0.0,meteohub,2013-02-11 03:02:00,
2013-02-10 19:07:00,47.5,37.4,30.19,WSW,257,0.0,0.0,68,0.00,,,0.00,0.0,meteohub,2013-02-11 03:07:00,
2013-02-10 19:12:00,46.9,37.2,30.19,WSW,257,0.0,1.0,69,0.00,,,0.00,0.0,meteohub,2013-02-11 03:12:00,
2013-02-10 19:17:00,46.6,37.4,30.19,WSW,257,0.0,1.0,70,0.00,,,0.00,0.0,meteohub,2013-02-11 03:17:00,
2013-02-10 19:22:00,46.4,37.6,30.19,WSW,257,0.0,0.0,71,0.00,,,0.00,0.0,meteohub,2013-02-11 03:22:00,
2013-02-10 19:32:00,46.2,37.8,30.19,WSW,257,0.0,2.0,72,0.00,,,0.00,0.0,meteohub,2013-02-11 03:32:00,
2013-02-10 19:37:00,46.0,37.6,30.19,WSW,257,0.0,2.0,72,0.00,,,0.00,0.0,meteohub,2013-02-11 03:37:00,
2013-02-10 19:47:00,46.2,38.1,30.19,WSW,257,0.0,0.0,73,0.00,,,0.00,0.0,meteohub,2013-02-11 03:47:00,
2013-02-10 19:52:00,46.2,37.8,30.19,WSW,257,0.0,1.0,72,0.00,,,0.00,0.0,meteohub,2013-02-11 03:52:00,
2013-02-10 20:02:00,45.9,37.8,30.19,WSW,257,0.0,1.0,73,0.00,,,0.00,0.0,meteohub,2013-02-11 04:02:00,
2013-02-10 20:07:00,45.3,37.6,30.19,WSW,257,0.0,1.0,74,0.00,,,0.00,0.0,meteohub,2013-02-11 04:07:00,
2013-02-10 20:12:00,45.1,37.4,30.19,WSW,257,0.0,1.0,74,0.00,,,0.00,0.0,meteohub,2013-02-11 04:12:00,
2013-02-10 20:17:00,45.3,37.9,30.20,WSW,254,0.0,1.0,75,0.00,,,0.00,0.0,meteohub,2013-02-11 04:17:00,
2013-02-10 20:22:00,45.9,38.1,30.20,WSW,254,0.0,2.0,74,0.00,,,0.00,0.0,meteohub,2013-02-11 04:22:00,
2013-02-10 20:27:00,46.0,37.6,30.20,WSW,254,0.0,2.0,72,0.00,,,0.00,0.0,meteohub,2013-02-11 04:27:00,
2013-02-10 20:32:00,45.9,37.8,30.20,WSW,254,0.0,2.0,73,0.00,,,0.00,0.0,meteohub,2013-02-11 04:32:00,
2013-02-10 20:37:00,45.3,37.6,30.20,WSW,254,0.0,0.0,74,0.00,,,0.00,0.0,meteohub,2013-02-11 04:37:00,
2013-02-10 20:42:00,45.1,37.4,30.20,WSW,254,0.0,0.0,74,0.00,,,0.00,0.0,meteohub,2013-02-11 04:42:00,
2013-02-10 20:47:00,45.1,37.4,30.21,WSW,254,0.0,0.0,74,0.00,,,0.00,0.0,meteohub,2013-02-11 04:47:00,
2013-02-10 20:52:00,45.3,37.6,30.21,WSW,254,0.0,0.0,74,0.00,,,0.00,0.0,meteohub,2013-02-11 04:52:00,
2013-02-10 20:57:00,45.3,37.6,30.21,WSW,254,0.0,0.0,74,0.00,,,0.00,0.0,meteohub,2013-02-11 04:57:00,
2013-02-10 21:02:00,45.3,37.6,30.21,WSW,254,0.0,0.0,74,0.00,,,0.00,0.0,meteohub,2013-02-11 05:02:00,
2013-02-10 21:07:00,45.0,37.6,30.21,WSW,254,0.0,2.0,75,0.00,,,0.00,0.0,meteohub,2013-02-11 05:07:00,
2013-02-10 21:12:00,45.0,37.6,30.21,WSW,254,0.0,2.0,75,0.00,,,0.00,0.0,meteohub,2013-02-11 05:12:00,
2013-02-10 21:17:00,44.4,37.4,30.21,WSW,254,0.0,2.0,76,0.00,,,0.00,0.0,meteohub,2013-02-11 05:17:00,
2013-02-10 21:22:00,44.1,37.0,30.21,WSW,254,0.0,0.0,76,0.00,,,0.00,0.0,meteohub,2013-02-11 05:22:00,
2013-02-10 21:27:00,44.2,36.9,30.21,WSW,254,0.0,0.0,75,0.00,,,0.00,0.0,meteohub,2013-02-11 05:27:00,
2013-02-10 21:32:00,45.3,36.5,30.21,WSW,254,0.0,0.0,71,0.00,,,0.00,0.0,meteohub,2013-02-11 05:32:00,
2013-02-10 21:42:00,45.7,36.1,30.21,WSW,254,0.0,1.0,69,0.00,,,0.00,0.0,meteohub,2013-02-11 05:42:00,
2013-02-10 21:47:00,45.0,36.1,30.21,WSW,254,0.0,1.0,71,0.00,,,0.00,0.0,meteohub,2013-02-11 05:47:00,
2013-02-10 21:52:00,44.8,35.6,30.21,WSW,254,0.0,1.0,70,0.00,,,0.00,0.0,meteohub,2013-02-11 05:52:00,
2013-02-10 21:57:00,44.8,35.2,30.21,WSW,254,0.0,0.0,69,0.00,,,0.00,0.0,meteohub,2013-02-11 05:57:00,
2013-02-10 22:02:00,45.0,35.1,30.21,WSW,254,0.0,0.0,68,0.00,,,0.00,0.0,meteohub,2013-02-11 06:02:00,
2013-02-10 22:07:00,44.1,34.9,30.21,WSW,254,0.0,0.0,70,0.00,,,0.00,0.0,meteohub,2013-02-11 06:07:00,
2013-02-10 22:12:00,43.5,34.7,30.21,WSW,254,0.0,0.0,71,0.00,,,0.00,0.0,meteohub,2013-02-11 06:12:00,
2013-02-10 22:17:00,43.3,34.5,30.21,WSW,254,0.0,0.0,71,0.00,,,0.00,0.0,meteohub,2013-02-11 06:17:00,
2013-02-10 22:22:00,43.9,34.7,30.21,WSW,254,0.0,1.0,70,0.00,,,0.00,0.0,meteohub,2013-02-11 06:22:00,
2013-02-10 22:27:00,45.0,34.7,30.21,WSW,254,0.0,1.0,67,0.00,,,0.00,0.0,meteohub,2013-02-11 06:27:00,
2013-02-10 22:32:00,45.3,34.7,30.21,WSW,254,0.0,1.0,66,0.00,,,0.00,0.0,meteohub,2013-02-11 06:32:00,
2013-02-10 22:37:00,45.3,34.3,30.21,WSW,254,0.0,0.0,65,0.00,,,0.00,0.0,meteohub,2013-02-11 06:37:00,
2013-02-10 22:42:00,45.7,34.5,30.22,WSW,254,0.0,1.0,65,0.00,,,0.00,0.0,meteohub,2013-02-11 06:42:00,
2013-02-10 22:47:00,45.7,34.2,30.22,WSW,254,0.0,1.0,64,0.00,,,0.00,0.0,meteohub,2013-02-11 06:47:00,
2013-02-10 22:52:00,45.9,34.0,30.22,WSW,254,0.0,1.0,63,0.00,,,0.00,0.0,meteohub,2013-02-11 06:52:00,
2013-02-10 22:57:00,45.9,34.0,30.22,WSW,254,0.0,0.0,63,0.00,,,0.00,0.0,meteohub,2013-02-11 06:57:00,
2013-02-10 23:07:00,45.0,33.4,30.22,WSW,254,0.0,0.0,64,0.00,,,0.00,0.0,meteohub,2013-02-11 07:07:00,
2013-02-10 23:12:00,45.0,34.0,30.22,WSW,254,0.0,0.0,65,0.00,,,0.00,0.0,meteohub,2013-02-11 07:12:00,
2013-02-10 23:17:00,45.1,34.2,30.22,WSW,254,0.0,0.0,65,0.00,,,0.00,0.0,meteohub,2013-02-11 07:17:00,
2013-02-10 23:22:00,45.3,33.8,30.22,WSW,254,0.0,0.0,64,0.00,,,0.00,0.0,meteohub,2013-02-11 07:22:00,
2013-02-10 23:27:00,45.3,33.8,30.22,WSW,254,0.0,0.0,64,0.00,,,0.00,0.0,meteohub,2013-02-11 07:27:00,
2013-02-10 23:32:00,45.3,33.4,30.22,WSW,254,0.0,0.0,63,0.00,,,0.00,0.0,meteohub,2013-02-11 07:32:00,
2013-02-10 23:37:00,45.0,33.4,30.22,WSW,254,0.0,0.0,64,0.00,,,0.00,0.0,meteohub,2013-02-11 07:37:00,
2013-02-10 23:42:00,45.1,33.3,30.22,WSW,254,0.0,0.0,63,0.00,,,0.00,0.0,meteohub,2013-02-11 07:42:00,
2013-02-10 23:47:00,45.9,34.0,30.22,WSW,254,0.0,0.0,63,0.00,,,0.00,0.0,meteohub,2013-02-11 07:47:00,
2013-02-10 23:52:00,45.9,33.6,30.22,WSW,254,0.0,1.0,62,0.00,,,0.00,0.0,meteohub,2013-02-11 07:52:00,
2013-02-10 23:57:00,46.0,33.3,30.22,WSW,254,0.0,1.0,61,0.00,,,0.00,0.0,meteohub,2013-02-11 07:57:00,